Location: Canet
(43.3261°N, 5.3723°E)
Time: 18:35:26
(UTC+00:00)

Cosmos 1346 Rocket - Pass Details

Date: 24 January 2021
Orbit: 531 x 547 km, 81.2° (Epoch: 07 March)

Event Time Altitude Azimuth Distance (km) Brightness Sun altitude
Rises 18:34:55 0° 181° (S) 2,660 6.4 -20.8°
Reaches altitude 10° 18:37:04 10° 178° (S) 1,775 5.5 -21.2°
Enters shadow 18:39:35 37° 163° (SSE) 836 3.6 -21.7°
